STARLINK-32403, 61629

Orbit data source: Space-Track

STARLINK-32403, 61629 is a payload satellite owned by SpaceX/Seattle (US) in LEO that was launched on Wed, 23 Oct 2024 UTC via an FALCON 9 launch vehicle from the Air Force Eastern Test Range (AFETR). Payload-class satellites include a variety of spacecraft equipped with specific instruments for various scientific and technological missions. These include communications satellites like Starlink; space stations such as the ISS; scientific satellites like the Hubble; Earth observation satellites from companies like Planet Labs, Umbra, and HawkEye 360; GPS; miniature CubeSats for education and research; and military/defense satellites.

Loading next visibility...
Identifier
61629, 2024-191J
Orbit
LEO
Last TLE update
8 hours ago
Origin
Manufacturer
SpaceX/Seattle
Mission
Operational Commercial Communications
Bus & Motor
STARLINK V2M, Unknown motor
Mass
730 kg wet, ~700 kg dry
Launch date (UTC)
2024-10-23 (8 months ago)
Launch vehicle
FALCON 9
Launch site
Air Force Eastern Test Range (AFETR)
Object type
Payload
Rocket body
Debris
Shape & HBR
Box + 2 Pan, 29 m
Radar Cross Section
36.964 m², Large (>1 m²)

Expand to show TLE details & history

TLE from 8 hours ago
0 STARLINK-32403
1 61629U 24191J   25181.86667768 -.00000416  00000-0 -56095-5 0  9995
2 61629  43.0010 136.6389 0001299 272.9560  87.1143 15.27577851 39028
Epoch: 2025-06-30T20:48Z
TLE epoch observation values (Epoch: 2025-06-30T20:48:00.951Z)
Latitude
-0.00002°
Longitude
-94.53542°
Altitude
482.786 km
Speed
7.626 km/s
True Right ascension
09h 06m 33s
True Declination
0° 00' 00"
Sunlit
Object was in daylight at epoch
Visualization orbit readout
Latitude
-37.58914°
Longitude
-151.49562°
Altitude
493.284 km
Speed
7.619 km/s
Apparent Right ascension
04h 41m 21s
Apparent Declination
-38° 56' 40"
Sunlit
Object is in daylight
Visualization observer readout
Local Sidereal Time
15:59:45
Azimuth
273.568° WNW
Elevation
-81.912°
Doppler factor
1
Orbital elements
Apogee altitude
485.892 km
Perigee altitude
484.109 km
Semi-major axis
6,863.138 km
Eccentricity
0.00013
Inclination
43.001°
RAAN
136.6389°
Arg. of periapsis
272.956°
True anomaly
Unknown
Mean anomaly
87.1143°
Eccentric anomaly
Unknown
Mean motion
3.81732 °/min
Orbital period
94.31 mins
BSTAR
-0.0000056095
Loading maneuver chart data...
Loading SW <> Apogee altitude chart data...
Loading historical data...
Loading historical data...
Loading historical data...
Loading historical data...
Loading historical data...
Loading historical data...
Loading historical data...

STARLINK-32403 Visibility forecast

Observer location: undefined°, undefined°

Span
Click to sort rows by Start time (UTC) header in descending order
Start Az.
Max El. time (UTC)
Max El. Az.
Max El.
End time (UTC)
End Az.
7 mins2025-07-01 05:04:18.187Z288.044° WNW2025-07-01 05:07:18.187Z287.167° WNW44.164°2025-07-01 05:11:18.187Z109.42° ESE
4 mins2025-07-01 06:44:18.187Z254.59° W2025-07-01 06:46:18.187Z212.263° SW20.931°2025-07-01 06:48:18.187Z171.802° S
4 mins2025-07-01 23:41:18.187Z184.094° SSW2025-07-01 23:43:18.187Z133.75° SE22.965°2025-07-01 23:45:18.187Z96.097° ESE
5 mins2025-07-02 01:19:18.187Z255.919° W2025-07-02 01:21:18.187Z283.344° WNW44.193°2025-07-02 01:24:18.187Z70.544° E
6 mins2025-07-02 02:58:18.187Z290.036° WNW2025-07-02 03:00:18.187Z336.304° NNW36.902°2025-07-02 03:04:18.187Z78.034° E
|